Wind_Speed
3 5 5 6 7 9 10 9 8 7 9 9 5 4 4 2 3 3 4 5 0 1 6 5 7 10 10 12 8 3 3 3 5 6 7 6 5 6 7 8 9 9 12 14 14 16 20 24 26 27 28 28 28 28 29 29 31 31 30 30 30 30 30 30 30 29 29 28 27 26 26 26 25 23 22 21 18 18 17 15 15 15 15 16 15 13
2 7 8 7 11 13 12 9 9 9 9 9 6 4 2 1 2 5 5 5 1 1 5 2 5 10 11 12 7 3 3 5 8 8 8 9 8 7 7 10 10 8 10 11 10 13 18 22 24 26 28 29 29 30 31 31 32 32 31 32 32 31 31 31 31 31 30 30 29 27 26 26 25 24 24 23 20 19 18 17 17 16 16 17 16 15
3 7 7 9 10 10 8 9 10 9 8 7 5 4 2 1 2 5 4 4 3 1 5 4 3 9 11 12 8 5 7 8 8 9 9 9 9 8 10 11 9 8 10 10 10 13 18 21 23 25 27 29 32 33 33 33 33 32 33 33 33 32 32 32 32 32 31 30 29 27 26 25 24 24 23 22 21 20 19 18 18 18 18 18 16 16
4 4 9 10 10 11 8 8 9 6 5 5 5 5 3 2 2 2 2 4 2 2 3 5 5 8 9 9 8 8 9 7 5 8 8 7 9 10 9 9 9 10 12 11 9 12 17 20 21 24 27 30 32 32 33 33 34 34 35 35 34 34 34 33 33 32 31 30 28 27 27 25 24 24 23 23 23 22 20 19 19 19 18 18 18 18
4 4 10 12 11 13 10 9 10 6 4 3 4 5 4 4 4 3 3 6 5 1 2 4 6 7 7 7 9 6 5 5 5 6 7 7 9 7 5 7 10 11 12 11 10 11 14 19 22 26 28 30 31 31 33 35 36 37 37 37 36 36 35 35 34 32 31 30 28 27 25 24 23 23 22 22 24 23 21 19 18 18 18 17 18 19
3 4 9 12 10 12 11 9 10 8 5 1 3 5 6 6 5 3 4 5 4 3 1 1 4 6 4 5 9 5 2 5 4 5 9 10 8 6 6 9 10 10 11 10 11 11 13 18 21 24 27 29 30 32 35 36 37 38 38 38 37 36 36 36 35 33 32 31 30 28 26 24 23 22 22 23 23 22 21 19 17 16 17 17 18 18
3 4 7 12 11 11 10 8 9 10 6 1 5 8 8 7 5 3 4 2 0 4 2 3 4 6 6 6 8 4 4 8 5 5 9 9 7 7 9 10 9 10 10 9 10 11 12 16 19 22 28 30 32 35 36 36 36 37 37 38 37 37 37 36 36 34 33 32 31 30 30 28 27 25 24 24 23 22 21 20 17 16 17 16 16 15
6 8 6 9 10 10 9 7 8 10 7 2 6 12 12 10 8 6 2 1 2 4 4 3 3 4 7 7 4 1 3 8 7 7 9 8 8 9 10 11 11 11 11 10 10 11 13 17 21 25 30 33 35 36 36 35 35 36 37 38 37 37 37 36 36 36 35 34 32 32 31 31 30 29 28 27 25 23 22 20 19 19 18 15 14 13
6 12 11 11 10 8 8 7 11 11 5 2 5 9 10 9 7 6 5 3 2 2 6 5 3 2 7 6 3 1 4 8 8 8 9 10 11 11 12 12 12 11 10 10 10 12 14 20 25 29 30 32 35 35 35 35 35 35 36 37 36 36 36 36 36 36 36 35 34 33 33 32 31 31 29 28 26 25 23 21 20 20 18 15 14 14
2 8 11 12 9 7 4 5 12 11 4 2 6 7 4 5 4 5 4 2 1 2 9 6 4 4 7 4 2 2 4 7 8 7 8 10 10 11 11 12 12 10 8 9 10 12 16 21 26 28 28 28 31 33 34 33 33 34 34 35 35 36 36 36 36 36 36 36 35 34 34 33 32 31 29 27 26 25 24 22 20 18 17 16 15 15
1 2 4 5 5 6 5 5 6 7 5 5 6 7 6 5 4 3 2 3 2 5 7 3 5 4 6 4 5 5 5 7 7 6 7 8 8 9 10 11 11 8 7 7 8 11 17 20 21 22 25 26 26 28 30 31 31 32 33 33 35 35 36 35 36 36 36 36 36 36 35 35 34 32 31 29 27 26 25 23 20 17 17 17 16 17
3 4 2 1 1 5 8 5 3 3 5 6 4 5 5 3 3 3 3 2 3 6 3 3 2 5 6 6 4 5 6 6 7 7 9 11 10 10 9 8 8 6 6 6 7 9 12 14 17 20 23 25 24 24 27 29 30 32 32 33 34 34 35 35 35 36 36 36 36 36 36 36 35 34 33 31 30 28 26 24 22 20 19 18 17 18
3 2 2 1 0 5 10 7 3 4 3 5 5 5 4 2 2 0 1 1 4 5 1 2 2 4 9 7 5 8 7 8 9 8 10 11 11 10 8 6 6 4 5 5 6 7 7 9 14 19 21 23 25 27 28 29 31 32 32 33 34 35 35 36 36 36 36 37 37 37 37 37 36 35 34 33 32 31 29 26 24 24 22 20 21 22
2 2 2 3 1 3 9 9 5 3 3 5 7 6 5 3 2 4 3 1 5 5 3 3 2 4 7 4 9 14 11 10 10 9 10 9 9 10 6 5 5 5 6 6 6 7 7 9 13 16 19 22 26 29 29 30 31 32 33 33 34 34 35 35 35 36 36 37 37 37 37 37 36 35 35 34 33 32 30 28 27 25 24 22 22 24
7 1 5 8 4 5 10 9 8 9 7 6 6 5 6 6 4 5 5 4 4 3 3 2 2 4 4 2 8 11 8 8 6 7 8 7 9 8 5 5 6 7 7 6 6 7 8 10 13 15 18 22 25 27 29 29 31 31 32 33 33 34 34 34 35 35 36 36 36 37 37 36 36 35 35 34 33 32 30 29 27 26 24 20 20 23
9 3 4 5 5 11 12 5 5 9 6 2 1 2 3 5 4 3 3 3 1 0 2 3 3 5 3 5 8 5 6 8 7 7 6 8 10 6 6 8 8 8 7 5 6 7 8 11 14 16 18 20 22 24 26 27 29 30 32 32 33 33 33 34 34 35 35 35 35 36 36 35 35 35 34 33 33 31 30 28 27 27 25 21 22 25
6 1 1 3 3 11 10 6 8 8 6 2 2 4 3 2 5 4 1 1 4 2 3 3 6 6 3 8 10 6 6 8 7 7 7 11 10 5 7 9 8 7 5 5 6 6 7 9 13 14 16 18 19 21 23 25 26 28 29 29 30 30 30 31 32 33 34 34 34 34 34 35 34 34 34 33 32 31 29 28 27 27 26 23 24 26
6 3 1 2 6 7 2 7 8 4 5 7 6 7 4 2 2 3 1 1 2 4 4 2 7 5 2 6 6 4 8 9 8 8 9 10 8 7 10 10 7 6 5 5 6 6 6 8 11 13 14 16 18 19 21 22 22 23 24 25 26 27 28 29 30 31 32 32 33 33 33 34 34 34 34 33 32 30 29 29 29 28 26 25 26 25
5 4 2 0 5 2 2 6 6 3 1 4 5 8 6 2 3 3 3 2 3 4 3 3 4 4 6 6 4 3 9 10 10 8 7 9 9 9 10 9 6 5 5 6 6 5 5 7 9 11 12 13 14 15 16 17 18 19 20 21 22 24 25 26 27 28 30 30 31 32 32 33 33 33 33 32 32 30 30 31 30 28 28 28 27 25
4 5 1 1 2 3 1 4 7 5 1 2 2 6 3 0 3 4 3 2 3 4 3 3 3 3 7 6 4 6 8 9 10 8 7 9 9 7 7 6 6 5 6 6 5 4 4 6 9 10 11 12 12 13 14 15 16 17 17 18 20 21 22 23 24 26 28 29 30 30 31 31 32 33 33 33 32 31 30 32 30 28 30 30 27 25
3 4 4 1 1 5 4 5 9 10 7 4 6 8 5 1 1 1 2 2 3 3 3 2 3 5 5 4 8 10 9 10 10 9 8 7 5 5 6 6 6 5 6 5 4 4 4 6 9 10 11 12 12 13 13 13 14 14 16 17 18 20 20 22 23 24 26 27 28 29 29 30 31 32 33 33 32 31 32 31 29 29 31 30 27 24
2 3 6 5 3 4 3 3 5 8 9 7 7 9 9 6 3 3 5 3 3 3 4 3 5 8 5 4 7 9 9 7 4 5 6 5 5 7 6 5 6 6 6 5 4 5 4 7 10 11 12 13 13 14 13 12 12 12 14 15 16 18 19 21 21 22 24 25 26 27 28 29 30 31 32 32 32 33 33 32 30 30 32 30 26 22
4 5 6 4 4 4 3 4 2 4 6 5 3 6 8 7 6 6 6 3 2 2 2 3 3 7 4 5 6 7 7 5 3 3 6 7 6 7 7 6 5 5 5 4 4 4 5 8 10 11 12 14 15 15 14 13 12 11 12 13 15 17 18 19 19 19 21 23 25 26 27 28 29 30 31 32 33 34 34 33 32 32 32 28 23 21
4 5 5 4 2 1 3 4 2 1 3 6 6 5 6 6 8 5 3 3 3 4 3 2 5 6 3 2 4 5 5 6 6 6 7 9 7 6 7 6 5 5 5 4 3 4 5 7 8 10 12 13 14 15 15 15 14 12 12 13 15 16 17 17 18 19 21 23 25 26 26 28 29 30 31 32 33 34 34 34 35 33 30 25 22 22
3 3 5 6 4 1 2 1 2 2 4 6 5 5 5 6 6 3 1 2 1 6 7 5 8 8 4 2 3 5 5 6 8 6 6 7 7 6 6 6 5 4 4 4 4 3 4 5 6 8 11 13 15 16 16 16 16 15 14 14 15 17 17 18 19 20 22 24 25 26 27 28 29 31 32 32 32 32 33 34 34 32 28 25 24 26
4 5 6 8 8 7 6 6 6 5 4 2 3 8 11 10 10 6 2 3 6 8 8 7 11 8 4 2 4 7 6 6 8 5 4 5 6 6 6 6 5 4 4 5 5 4 4 4 5 7 10 13 15 17 17 17 18 17 16 15 16 17 18 18 19 21 23 24 25 26 27 29 29 30 31 32 32 32 32 33 31 29 27 26 27 29
4 5 7 10 12 12 9 6 6 10 9 9 11 14 15 12 12 7 4 7 10 5 6 13 14 8 6 5 5 6 6 6 7 5 4 5 5 6 6 7 6 4 4 4 4 4 5 5 5 8 11 13 15 17 18 18 19 18 17 16 16 17 17 18 19 21 24 25 25 25 27 29 29 30 31 31 32 32 32 31 28 26 26 27 29 32
5 6 10 13 12 7 5 5 9 14 15 16 14 15 15 14 14 11 10 15 8 4 8 15 12 12 12 7 7 9 6 5 6 6 5 4 5 6 6 6 6 5 4 4 5 5 6 6 7 8 12 15 16 17 18 17 18 18 18 18 18 18 18 19 20 22 24 26 27 27 27 27 27 28 30 31 31 30 29 28 26 26 28 30 32 34
6 9 13 14 9 3 5 6 11 12 10 11 14 15 16 17 18 18 20 20 9 6 14 9 9 15 12 6 9 11 6 5 5 4 5 5 6 7 7 7 7 6 5 5 6 6 7 8 7 8 12 15 16 17 17 17 18 19 19 19 20 20 20 20 21 23 24 25 26 27 28 28 28 28 29 29 28 28 26 26 27 28 30 32 34 35
3 5 7 10 7 4 5 3 8 10 6 6 11 13 14 18 22 23 25 22 12 13 17 6 6 14 8 6 11 9 5 5 3 2 5 6 7 6 6 8 8 7 6 7 7 7 8 8 7 9 12 14 16 17 18 19 21 22 22 22 23 23 23 23 22 22 24 25 25 25 26 27 28 29 28 28 27 25 25 26 28 31 33 34 35 36
2 2 2 6 6 4 6 4 4 7 8 7 9 11 14 17 20 21 22 17 12 17 21 10 8 14 8 8 9 6 5 5 4 5 8 8 7 6 6 8 8 8 8 7 8 7 7 8 8 9 12 15 18 19 20 22 23 24 25 25 25 25 25 25 25 23 23 23 24 24 25 26 27 27 26 25 24 24 25 29 31 33 35 36 36 36
3 2 2 6 6 1 3 5 6 5 5 4 8 15 18 17 16 17 16 15 16 20 19 11 12 15 9 8 7 7 8 8 9 10 10 9 7 7 8 10 9 8 9 8 8 7 8 9 9 10 13 17 20 22 24 25 25 25 27 27 26 26 25 26 26 26 25 24 23 24 25 26 26 25 25 24 24 26 29 32 34 35 36 37 36 35
5 4 2 5 6 2 2 4 7 7 5 3 11 17 20 17 14 15 15 17 20 18 13 12 15 11 5 8 9 9 10 12 13 12 10 11 8 7 9 11 9 9 9 9 8 7 8 10 11 13 16 19 22 26 28 28 27 28 29 28 27 26 26 26 26 26 26 26 25 25 25 25 25 25 25 26 27 29 32 34 36 37 37 37 36 35
7 8 4 4 5 3 4 5 6 5 4 8 8 11 18 19 20 20 19 19 19 15 12 14 13 5 5 9 11 10 11 12 12 11 11 10 7 6 8 10 11 11 9 8 8 8 8 9 10 14 17 20 23 25 25 26 27 27 26 26 26 27 27 27 27 26 26 26 26 27 27 27 27 27 28 29 30 32 34 36 37 37 37 37 36 35
9 8 5 4 5 3 5 6 5 7 10 7 2 10 19 24 24 22 19 17 15 15 17 19 18 12 9 10 9 8 10 10 8 9 11 8 7 7 8 10 11 11 9 8 9 9 8 9 11 14 17 20 21 21 22 25 26 24 23 24 26 26 27 27 27 27 27 27 27 28 28 29 29 30 30 31 33 34 35 36 37 37 37 36 36 35
11 8 4 3 4 3 4 7 8 8 6 5 3 6 13 14 14 13 13 14 15 17 20 22 22 19 15 12 9 8 7 5 4 7 10 8 7 8 9 11 12 11 10 9 8 8 10 12 14 16 16 16 18 20 23 24 25 24 23 24 25 26 26 27 27 27 27 28 29 29 30 30 31 31 32 33 34 35 36 37 37 37 37 36 35 35
10 9 5 3 2 3 4 6 4 5 8 9 8 5 6 7 10 10 9 15 17 18 18 18 18 17 15 13 12 7 2 2 6 8 9 8 8 11 13 13 12 10 8 6 7 8 10 12 13 14 14 14 15 19 22 23 24 24 24 24 25 26 26 27 27 28 29 29 30 31 31 31 32 33 34 35 36 37 38 38 38 38 37 37 36 35
5 7 7 6 2 3 5 3 2 4 9 10 4 3 6 9 11 12 8 12 12 14 15 16 17 16 14 13 11 5 4 3 9 10 9 9 12 13 12 11 10 7 6 6 7 8 8 9 10 11 12 13 14 17 19 21 23 24 24 24 25 26 26 27 29 30 31 31 31 31 31 32 33 34 35 36 38 39 39 38 38 38 37 37 37 35
4 3 6 6 3 4 6 5 5 8 10 4 5 7 9 11 11 10 2 8 7 11 16 19 19 16 14 14 11 7 6 7 10 10 9 10 11 9 8 9 7 5 6 8 9 10 9 8 8 9 10 13 15 16 17 20 22 24 24 24 25 25 26 29 30 31 31 31 30 31 32 32 33 35 36 37 38 39 39 39 38 37 36 36 35 35
5 3 4 6 5 5 6 5 4 6 7 4 7 8 8 11 13 11 1 8 7 9 13 15 16 16 16 15 9 8 8 11 10 8 6 3 3 2 2 3 2 2 3 4 5 8 9 8 8 10 12 14 14 14 16 19 21 23 23 22 23 25 26 28 28 27 27 28 28 29 30 31 33 34 35 37 37 37 37 37 37 36 35 34 34 33
3 2 3 7 7 6 7 7 4 5 6 7 6 7 10 12 10 7 8 8 5 6 6 9 13 15 14 11 7 7 11 10 5 2 0 4 4 3 3 3 2 2 3 3 1 3 6 7 9 9 10 10 11 12 15 19 21 21 21 20 22 24 24 23 22 23 24 25 26 27 29 30 31 32 33 34 34 34 35 35 35 35 35 34 33 32
6 5 3 6 7 4 4 5 3 6 7 6 5 4 7 7 5 7 8 4 3 4 5 7 11 11 9 8 8 9 10 6 4 3 3 4 4 3 2 3 3 4 4 5 3 3 6 8 7 6 5 6 8 11 15 18 20 20 19 20 22 22 21 19 19 20 22 23 24 26 27 28 30 30 31 31 32 33 33 33 33 34 34 34 33 33
8 8 6 7 6 3 3 5 4 7 5 11 12 4 3 5 6 6 3 1 3 4 4 6 8 7 7 8 9 10 7 5 4 4 4 3 3 4 3 2 4 4 4 6 6 4 7 9 8 6 5 5 7 10 14 17 19 18 18 20 20 19 18 17 18 18 20 22 24 25 27 28 29 30 31 31 32 33 33 33 34 34 34 35 34 34
7 9 8 7 5 5 7 8 6 4 5 12 13 8 7 7 4 3 5 4 4 4 4 5 6 6 7 8 8 8 6 5 3 2 4 3 2 3 3 3 4 4 5 7 6 5 7 9 9 8 7 6 7 10 13 16 17 17 18 18 17 16 16 16 16 18 20 22 24 25 26 27 28 30 31 32 32 33 34 34 34 34 34 35 35 35
7 7 6 4 4 5 7 7 5 2 4 5 4 5 10 9 3 3 5 3 3 4 5 4 5 6 7 7 6 5 6 5 3 2 4 4 3 3 3 3 4 5 6 7 7 6 7 9 10 9 8 7 7 9 11 14 15 15 15 14 14 14 15 15 16 17 19 21 23 24 25 26 27 29 30 31 33 34 35 36 35 35 35 35 36 36
3 3 5 4 3 4 5 5 3 2 4 4 2 2 6 7 4 3 4 1 3 5 4 3 5 7 6 6 6 4 5 6 5 4 3 4 3 2 3 4 5 6 7 7 8 8 8 9 10 9 9 7 6 7 9 11 12 12 11 11 11 12 13 14 15 17 18 20 21 22 24 25 26 27 28 30 32 34 35 37 37 37 36 36 35 34
2 4 5 4 5 5 6 7 7 4 6 7 3 3 1 2 2 3 3 2 2 4 3 2 3 5 6 6 6 5 5 5 6 5 3 4 4 3 3 4 5 7 8 8 8 7 8 9 10 9 9 8 6 5 7 9 10 8 8 8 9 11 12 13 15 16 17 19 20 21 23 24 25 27 28 29 30 31 32 34 35 35 36 36 35 34
3 5 6 6 7 7 5 5 5 1 2 4 4 2 2 4 5 3 2 2 3 4 3 1 1 3 5 5 5 6 5 5 6 6 5 4 4 4 3 4 5 7 8 8 8 7 7 9 10 9 9 7 6 6 6 8 8 7 6 7 8 10 11 13 14 15 16 18 19 20 21 23 24 26 27 28 29 30 31 32 34 35 36 38 39 38
5 7 6 5 5 3 3 1 3 4 3 3 5 6 6 6 6 5 3 4 4 4 4 4 4 2 3 3 4 6 6 4 4 6 6 4 4 4 3 5 7 8 8 9 9 8 8 9 9 9 8 7 6 5 5 6 6 6 5 5 7 9 11 13 14 15 15 16 17 19 20 22 23 24 26 27 28 29 30 32 34 35 36 37 37 38
7 7 3 4 5 6 5 6 7 4 2 6 10 12 10 6 7 7 5 5 5 5 6 6 5 5 4 3 2 6 7 5 4 6 6 4 4 4 4 6 7 8 9 9 9 9 10 10 9 8 6 5 5 4 4 4 5 5 4 5 6 8 10 13 14 14 15 15 17 18 20 21 22 23 25 26 27 28 28 28 30 32 33 33 33 34
6 8 8 8 9 9 8 11 11 7 6 8 10 10 9 7 8 8 7 6 6 5 6 7 6 5 5 5 4 6 8 6 6 7 7 5 5 6 7 7 8 9 9 8 9 10 11 10 9 7 6 5 4 4 3 3 3 3 4 4 6 8 10 12 13 14 14 15 16 18 19 20 21 22 23 24 26 27 27 26 26 28 30 31 31 31
Wind_Direction
149 150 190 182 159 165 176 187 176 155 150 140 137 160 157 181 275 269 264 282 34 249 261 230 240 255 255 261 253 174 145 201 233 242 241 243 235 231 231 234 234 229 238 243 234 225 223 223 224 223 224 225 226 228 229 230 231 231 231 230 231 230 229 229 229 229 228 227 227 228 229 231 234 235 234 233 234 237 237 239 240 242 240 237 254 271
158 187 195 170 160 171 177 164 139 136 140 130 132 155 150 144 278 276 270 286 345 193 266 279 261 263 262 264 257 153 174 228 221 225 231 230 232 231 230 234 234 238 250 251 238 226 222 222 222 222 223 223 224 225 226 228 230 231 231 231 232 232 230 230 231 230 229 229 229 229 231 233 237 238 237 234 234 235 235 238 240 241 242 241 249 260
182 201 174 154 158 158 153 142 139 145 145 135 130 134 170 178 298 287 291 332 5 208 272 318 284 265 264 260 251 192 209 235 218 218 224 215 220 226 227 232 233 239 249 247 237 229 225 222 221 220 221 222 224 225 225 227 228 229 230 231 231 232 231 232 232 231 232 233 234 235 237 238 239 240 240 239 237 236 235 236 237 239 242 242 244 247
177 188 154 147 147 139 141 160 161 160 151 143 141 145 182 139 97 274 314 353 338 195 258 312 306 273 267 264 259 222 219 245 231 223 232 214 216 225 225 228 224 228 238 241 236 231 228 224 221 220 220 222 224 224 224 224 225 227 228 229 229 230 231 233 233 233 235 236 238 238 238 238 238 240 242 239 235 233 232 232 234 236 236 239 244 247
142 152 154 148 150 149 150 169 169 174 188 171 167 166 166 151 158 214 304 332 314 261 235 301 310 277 259 258 261 242 215 252 252 231 247 241 231 238 242 232 223 224 232 234 233 229 221 220 220 220 221 222 222 222 223 223 224 225 227 228 228 229 230 231 233 234 234 233 232 231 230 230 231 232 233 230 226 223 222 225 232 237 237 240 245 250
136 162 158 146 151 153 151 171 176 175 176 202 212 180 158 162 170 218 303 344 341 316 298 289 284 271 278 262 250 249 220 243 237 216 239 245 237 234 237 236 229 228 232 230 233 232 221 219 220 221 222 221 222 224 225 226 226 225 227 228 227 227 228 230 231 232 231 228 226 223 220 218 217 219 221 222 221 220 219 225 236 241 239 241 243 246
146 164 160 154 158 156 158 178 182 168 151 210 203 167 160 165 158 207 277 343 208 271 271 149 228 271 301 273 243 234 237 247 250 237 245 250 242 225 226 234 229 228 232 231 236 236 226 219 216 219 221 220 222 226 228 227 226 225 226 227 226 226 227 228 229 229 227 224 222 221 220 217 216 216 219 224 226 227 229 232 239 239 234 236 241 245
147 151 160 160 156 161 174 183 183 170 152 220 192 166 173 178 175 186 200 230 230 285 289 195 184 267 278 265 255 187 240 261 268 261 258 252 242 233 231 234 229 225 225 223 229 231 226 220 217 220 222 223 225 228 227 225 223 225 226 226 225 225 226 226 226 226 225 223 221 220 220 219 219 219 222 226 226 228 229 228 231 230 224 226 235 242
145 165 175 165 159 178 188 174 174 165 146 229 186 166 176 171 169 156 132 210 249 330 278 245 147 236 259 268 335 19 233 253 260 255 253 246 238 235 236 237 234 231 225 219 225 227 224 222 222 224 226 227 228 227 226 225 224 225 225 224 224 224 225 225 224 224 224 224 224 221 219 219 221 222 224 225 223 222 223 225 228 225 220 222 228 235
185 182 173 162 168 185 163 141 167 160 127 184 143 116 104 98 105 110 126 171 83 266 254 236 173 233 260 252 275 289 234 238 248 252 249 243 239 237 238 240 239 237 230 223 228 232 229 226 227 228 229 230 229 226 226 225 224 224 223 222 222 223 224 223 223 222 223 224 223 221 219 218 220 221 221 221 220 218 219 222 224 220 217 218 220 226
234 96 136 152 172 167 117 89 150 149 131 139 117 86 72 57 59 76 95 96 94 257 261 240 186 215 277 247 198 221 218 205 219 242 254 254 250 241 236 237 238 236 232 229 233 241 239 236 235 232 230 230 228 226 224 222 222 222 222 221 221 222 223 222 222 221 222 222 221 221 220 220 220 219 217 216 215 215 214 215 216 212 209 211 218 221
66 85 135 167 152 135 110 85 56 84 126 130 112 106 100 33 27 35 10 71 200 244 291 330 162 168 247 248 201 239 239 211 211 218 233 241 243 241 235 236 240 240 242 238 236 242 240 238 235 229 227 227 223 221 220 219 219 220 220 220 220 221 221 221 221 221 221 220 220 220 220 220 221 219 218 215 213 213 210 210 210 203 201 208 211 206
67 116 167 83 236 156 128 116 45 24 71 100 108 120 113 33 30 310 283 170 234 243 268 295 154 186 245 245 236 257 255 236 227 217 223 231 239 242 238 237 242 242 245 245 241 241 237 232 230 225 222 219 216 216 216 216 216 217 218 218 218 219 220 219 220 219 219 219 219 219 219 220 221 220 219 216 215 213 211 210 207 199 200 205 203 199
76 342 201 144 243 197 153 144 147 156 144 141 147 147 149 139 147 204 203 218 251 245 227 207 168 246 271 256 229 234 235 232 225 224 230 232 241 248 247 245 253 255 244 240 244 242 235 233 232 228 223 217 214 214 213 213 213 213 214 215 216 218 219 219 218 218 217 218 219 219 220 220 220 220 220 218 217 215 213 211 209 207 204 204 207 204
155 231 207 177 176 186 177 171 158 154 158 168 164 156 168 171 175 192 188 212 237 250 261 231 175 216 224 266 241 230 249 263 243 237 240 246 252 254 269 270 259 258 248 234 240 241 238 234 231 229 226 221 217 213 211 210 210 210 211 213 214 216 217 217 217 217 216 217 218 219 220 220 220 221 221 220 219 218 214 212 211 209 205 208 215 207
169 205 203 173 168 170 174 177 129 129 141 194 126 125 191 186 150 134 182 200 164 5 264 221 229 222 203 283 280 256 278 283 260 250 247 254 255 249 265 264 250 250 245 230 236 240 240 234 227 224 223 223 221 214 210 209 208 208 210 212 213 215 216 217 216 216 217 217 218 219 219 220 220 221 221 219 218 218 216 215 213 207 205 214 216 205
167 159 30 66 139 174 174 160 154 150 146 139 169 183 196 159 111 109 194 61 75 223 242 193 243 279 322 284 276 259 266 279 269 254 238 244 251 249 256 255 249 252 249 240 239 239 235 228 223 219 217 218 217 212 210 208 208 209 209 211 212 213 214 216 216 217 217 218 218 219 219 220 219 220 220 218 217 216 215 214 212 207 206 209 208 204
153 95 329 97 149 194 202 137 164 194 143 141 187 185 136 68 84 115 176 44 84 232 266 215 235 265 275 264 288 271 249 264 267 249 238 244 246 245 249 252 255 254 251 253 247 239 233 222 216 213 211 211 210 208 207 206 206 207 209 211 211 212 215 216 218 218 218 218 218 219 219 219 219 220 219 219 217 214 212 210 206 204 206 203 202 203
136 96 330 330 150 199 1 125 165 266 148 143 180 166 136 151 208 163 160 179 189 225 275 284 256 247 214 235 306 263 231 242 255 254 247 244 236 237 248 257 264 252 241 250 245 234 230 217 211 208 208 207 204 204 204 203 203 204 207 210 211 214 217 218 219 219 219 220 220 221 220 219 219 218 217 217 215 211 211 209 202 202 204 201 198 201
128 111 120 317 147 149 125 167 181 192 159 54 136 169 162 84 191 178 166 164 177 206 251 300 313 259 225 216 216 233 234 234 249 264 256 245 243 246 257 265 265 253 246 251 241 233 225 213 209 205 205 204 197 197 198 198 202 204 206 210 211 215 217 219 220 219 218 219 220 220 219 218 217 216 215 214 211 210 211 207 204 205 203 198 195 197
112 109 133 123 134 155 179 206 189 175 166 157 165 182 193 170 134 173 186 146 132 169 206 263 279 260 244 204 196 215 228 224 231 247 249 254 272 267 262 265 268 262 255 254 236 222 216 211 206 198 200 201 195 194 197 202 208 210 213 215 216 217 219 220 220 219 218 218 218 219 217 216 215 213 213 211 208 209 208 205 207 207 199 193 194 200
108 104 133 140 164 179 206 231 186 181 184 175 171 184 189 181 145 168 212 194 124 167 177 179 259 265 245 205 205 215 228 234 242 266 271 284 288 271 265 257 257 261 255 246 227 211 204 206 202 194 194 196 192 193 198 206 211 216 220 220 219 221 223 224 224 221 219 217 217 218 216 215 213 211 209 207 205 206 204 203 205 203 195 191 196 206
105 101 112 126 177 200 260 281 234 200 196 187 201 192 177 181 183 188 212 198 141 203 164 133 265 277 240 193 212 234 262 291 292 278 284 284 268 267 277 271 260 265 260 244 224 216 208 204 199 194 194 195 194 195 200 203 208 215 221 219 220 222 223 224 224 221 217 215 214 215 214 213 211 209 207 205 204 203 202 201 198 196 194 193 199 209
95 101 106 105 140 274 308 290 318 45 175 206 230 195 153 190 202 186 179 159 167 216 196 193 256 274 277 195 211 238 277 294 272 251 262 276 281 274 274 282 276 269 270 256 239 231 218 206 198 195 197 197 194 196 199 202 204 211 218 219 218 218 218 218 217 215 211 209 209 209 209 209 207 205 204 204 203 199 198 196 190 190 194 198 206 208
106 124 129 121 127 31 347 274 238 229 202 207 212 174 165 183 163 136 134 116 229 214 178 198 243 249 275 307 275 265 269 276 271 251 226 248 278 284 279 290 283 270 270 249 238 238 220 208 204 205 205 201 198 198 200 202 204 207 213 216 215 213 213 212 210 208 205 203 203 203 203 204 204 202 200 201 199 195 193 191 188 189 195 203 207 201
125 149 147 138 153 182 193 196 202 193 177 189 169 175 192 184 161 171 157 139 234 215 164 196 237 250 298 297 263 279 287 275 271 273 254 250 271 285 288 291 280 265 251 232 225 227 224 222 222 218 214 209 207 204 203 204 205 205 208 213 214 212 208 208 207 204 202 200 200 201 200 200 200 198 197 196 194 191 190 190 190 192 198 203 200 192
107 163 181 176 178 186 188 181 142 126 145 193 191 184 193 190 178 173 143 194 222 198 180 224 234 254 280 245 238 277 282 268 269 271 264 260 272 282 280 279 276 260 245 239 230 224 222 225 226 223 221 218 215 212 208 207 205 204 203 206 211 212 207 206 206 203 201 198 198 200 199 197 195 195 194 193 190 188 188 190 194 198 201 199 193 186
118 184 199 192 190 180 156 145 136 143 171 191 183 182 189 187 184 184 202 218 201 126 229 234 223 237 247 228 246 268 253 246 274 280 268 270 286 289 283 282 283 275 260 249 241 235 227 227 225 220 220 219 218 217 213 210 207 205 205 205 207 210 208 205 205 202 200 198 196 197 196 194 194 193 190 188 187 188 191 194 199 201 198 192 188 184
148 192 195 185 184 131 105 145 154 158 177 180 173 184 186 184 188 196 216 223 185 181 237 217 180 226 233 188 229 253 243 221 236 261 284 302 299 297 305 303 295 286 269 248 238 231 225 228 227 220 220 218 216 216 213 209 207 205 207 207 206 208 209 207 204 201 198 197 196 194 191 191 192 191 190 189 190 193 196 198 198 195 190 186 184 182
141 192 185 163 153 62 50 133 157 150 143 157 179 188 183 187 195 201 218 223 204 227 244 213 192 243 237 184 223 241 244 246 255 278 284 290 285 288 301 297 290 282 266 249 241 233 226 229 229 223 223 220 215 214 210 207 206 204 206 208 206 206 208 209 206 201 197 195 194 193 192 191 190 190 191 192 193 195 197 197 193 188 185 183 182 181
51 160 134 121 116 34 15 33 95 139 151 165 190 196 191 197 203 208 220 220 210 237 244 238 267 270 241 206 236 247 240 265 310 289 271 268 264 267 273 272 274 275 267 253 242 233 226 227 226 222 222 219 216 213 210 209 208 206 206 208 207 207 207 207 207 205 202 199 195 193 192 192 191 192 193 195 197 199 198 194 189 185 183 181 181 181
63 90 51 100 119 329 348 67 74 96 128 165 214 211 201 200 205 212 219 210 206 227 233 230 256 260 224 189 219 246 249 259 265 261 260 252 228 222 247 257 259 261 262 259 246 233 225 225 223 220 219 216 214 213 212 210 207 206 207 207 207 207 207 207 207 207 207 206 203 199 197 197 198 198 199 201 203 201 195 190 186 183 182 181 181 181
117 123 94 124 141 242 284 119 111 100 92 253 239 214 199 200 208 215 221 217 212 217 217 217 233 237 172 160 193 216 231 246 255 260 266 265 239 215 237 253 255 249 245 248 246 233 226 226 223 222 220 216 215 216 215 212 207 209 210 207 206 206 205 207 209 208 207 207 209 209 207 206 205 204 205 204 201 196 190 187 185 183 182 181 181 181
147 135 142 155 142 183 210 142 109 118 197 242 232 179 179 196 207 212 220 221 215 216 223 235 242 227 134 167 192 196 203 220 236 243 250 259 252 238 248 255 257 252 244 243 243 237 234 233 230 228 225 224 223 222 220 216 214 214 212 207 205 204 204 206 207 208 208 209 210 212 212 211 209 206 204 200 195 192 189 187 184 183 183 182 181 182
152 138 157 163 119 149 182 133 132 203 223 238 183 153 180 199 205 210 223 226 219 223 235 245 249 237 210 199 196 200 214 222 233 243 246 242 222 224 245 255 256 255 248 242 239 235 236 235 233 233 231 231 229 223 220 217 215 212 209 205 204 203 203 204 203 205 207 208 209 210 210 209 205 201 198 194 192 191 188 186 185 184 184 184 183 184
162 155 155 144 119 131 156 158 184 223 259 290 286 186 190 197 195 203 232 241 225 219 227 235 240 240 236 234 230 225 231 252 275 256 243 233 218 215 228 243 248 244 239 237 232 229 233 234 236 239 240 238 228 219 219 217 211 207 204 203 203 202 202 202 201 202 204 205 205 206 206 203 199 196 195 193 191 190 188 187 187 186 185 184 184 185
168 162 143 142 163 134 147 189 227 320 311 271 248 218 178 166 167 177 221 244 228 217 224 231 236 240 238 238 241 229 197 304 292 262 236 221 221 222 223 231 239 237 234 234 229 231 240 243 246 248 244 237 225 219 218 214 207 203 200 199 200 200 200 199 200 202 203 203 203 203 202 201 198 196 194 193 191 190 189 189 188 188 186 185 184 184
157 168 158 166 185 101 120 189 254 279 263 249 218 168 159 162 165 166 201 248 233 210 219 228 230 233 233 235 233 190 132 233 260 258 240 215 216 224 228 235 246 252 255 253 245 243 246 245 245 245 238 229 224 221 216 209 204 199 196 197 197 198 198 199 202 204 204 205 205 203 203 202 200 198 196 195 193 192 190 190 190 189 188 187 186 185
108 134 142 148 159 144 153 179 199 221 242 230 153 168 171 160 144 127 163 270 237 194 207 217 220 224 226 228 217 158 146 226 246 253 249 225 219 225 232 241 252 259 256 255 254 254 253 246 235 228 223 221 220 217 210 205 200 195 194 197 197 197 200 203 206 207 207 207 207 206 206 204 202 202 200 197 196 193 192 192 191 189 189 188 188 186
129 137 148 161 181 176 171 189 215 233 245 213 181 185 165 141 120 105 152 265 242 207 209 206 208 218 222 222 205 160 188 224 235 246 253 225 185 181 203 235 254 285 279 272 261 252 246 233 215 205 209 216 217 210 203 199 195 193 195 197 197 200 206 208 210 210 209 210 209 207 207 206 204 204 203 200 197 194 193 193 191 189 188 187 188 186
145 176 186 189 191 175 178 206 249 263 239 221 204 180 150 128 114 142 205 234 238 230 209 183 197 217 219 208 186 188 216 222 210 215 29 83 110 111 51 42 91 72 9 11 326 234 214 204 204 203 211 218 212 202 197 193 191 193 196 198 201 207 212 213 213 213 211 211 210 208 209 208 206 206 204 200 197 195 194 193 191 189 188 187 186 185
173 177 193 192 184 167 177 199 263 276 234 180 145 169 160 140 160 204 208 206 209 212 191 183 202 215 209 191 192 213 223 202 153 138 93 98 133 131 40 28 75 75 50 57 78 134 162 169 176 181 196 205 199 196 194 190 190 193 194 200 207 213 215 215 216 215 213 211 210 210 209 208 207 205 203 201 198 196 194 193 193 192 190 188 187 185
170 167 191 197 175 144 163 177 218 265 223 135 119 132 223 193 195 203 182 171 207 195 184 201 210 202 185 189 211 225 216 183 176 163 122 115 118 103 77 50 66 66 58 66 75 104 140 146 145 150 161 169 180 190 191 189 190 191 195 205 213 214 214 215 215 214 212 210 210 210 209 208 207 206 204 203 201 199 197 194 193 193 191 189 187 184
176 179 191 199 180 165 185 195 206 232 180 146 142 165 202 205 195 159 149 176 215 195 181 203 217 205 187 189 209 220 206 198 214 165 130 140 124 94 87 69 70 71 65 68 77 104 133 138 136 136 142 153 172 185 190 192 192 192 199 210 213 211 210 212 212 210 208 208 208 208 208 208 207 206 205 204 202 200 198 196 193 192 192 190 188 185
208 193 171 177 193 190 196 208 221 220 191 186 177 174 181 184 177 133 148 172 217 195 173 185 208 206 191 179 178 188 193 194 186 134 135 148 139 117 102 79 71 72 73 74 81 102 128 135 132 131 133 143 167 182 191 197 197 198 204 209 209 208 207 206 206 205 204 206 206 206 207 206 206 207 206 204 203 201 199 197 194 192 192 191 190 188
241 167 140 154 206 254 248 213 198 252 226 219 278 282 185 174 155 135 145 174 216 182 167 195 204 190 180 169 153 164 199 188 148 121 125 127 125 119 104 90 73 74 82 80 78 95 119 123 121 123 122 126 154 180 189 198 203 207 211 210 207 208 207 204 203 202 203 205 206 206 206 205 204 205 205 206 206 204 203 200 197 194 192 191 191 190
267 167 157 163 170 206 229 194 169 193 210 196 212 301 286 166 163 153 160 215 206 164 164 239 204 168 169 167 151 157 184 167 139 132 134 129 135 135 114 101 84 80 82 80 82 101 119 119 118 120 116 118 140 168 182 195 204 211 217 212 207 206 205 203 202 202 203 204 205 206 206 205 204 204 204 205 205 205 205 204 200 197 194 192 192 192
202 167 175 183 175 186 214 191 160 187 242 196 186 200 198 196 195 172 145 165 150 128 113 44 71 139 159 163 149 137 133 137 142 143 142 141 140 134 120 106 97 89 85 84 88 100 110 114 119 120 116 119 136 156 176 189 197 205 211 208 205 203 202 202 203 203 204 205 205 207 207 207 207 206 205 206 206 206 206 205 203 202 201 200 199 198
141 163 179 168 162 210 283 237 106 44 350 258 222 224 227 208 181 158 135 131 127 115 95 67 45 56 115 138 147 129 117 125 144 136 134 139 134 128 119 101 93 89 86 83 81 86 91 95 103 111 114 117 131 150 168 175 181 191 195 197 201 202 200 200 201 202 203 204 206 209 208 209 210 210 209 208 208 208 210 210 209 208 208 208 207 205
139 162 158 124 174 220 226 183 160 138 179 220 220 219 217 190 151 146 146 142 145 144 124 101 70 45 45 53 120 132 122 120 123 123 124 126 122 124 123 109 100 93 88 85 83 84 85 85 88 98 107 110 120 137 151 159 169 176 178 185 196 200 201 201 199 198 202 205 208 211 211 211 212 212 212 211 210 209 211 213 214 214 213 213 212 212
172 176 168 169 202 218 187 171 175 172 180 206 211 199 182 153 140 152 161 161 163 161 145 129 112 89 52 27 48 112 123 126 127 120 110 93 92 106 109 107 106 99 90 87 86 82 81 81 83 88 95 98 104 114 125 136 147 156 169 183 192 200 206 204 199 198 202 207 211 214 214 214 214 213 213 214 213 211 210 212 215 218 219 219 218 218
Height
826 833 838 836 840 844 842 840 842 845 847 851 858 860 861 863 863 859 855 850 851 851 844 843 843 836 830 825 822 829 834 832 832 832 832 833 834 835 835 835 833 832 828 826 829 831 831 833 835 837 839 840 842 842 844 845 846 848 850 852 853 855 857 859 860 861 863 864 866 867 868 869 871 872 873 874 876 877 878 879 880 881 882 882 883 883
827 831 832 831 834 836 837 839 842 847 849 851 858 861 862 866 864 858 854 850 850 852 844 842 844 838 832 826 823 829 830 826 824 824 826 828 830 832 832 831 830 829 827 826 828 829 830 831 832 834 835 837 838 839 840 841 843 845 847 848 850 852 854 855 857 859 859 861 863 865 866 868 870 870 871 872 873 875 876 877 878 879 879 880 881 881
831 829 827 828 829 833 838 841 842 845 848 851 856 860 862 864 861 854 851 851 852 852 844 841 843 836 829 824 822 826 824 819 820 819 819 821 823 827 827 826 828 828 826 824 825 826 827 828 829 831 832 833 834 835 837 838 840 843 844 845 847 849 851 852 854 856 857 858 861 863 864 866 868 868 869 870 871 872 873 874 876 876 877 878 879 879
830 828 825 826 829 834 841 843 841 843 848 852 854 858 861 862 861 856 853 851 850 851 849 846 845 836 825 822 819 820 820 817 817 818 819 821 819 818 821 822 824 824 822 821 822 823 824 825 826 827 828 829 830 832 833 835 837 838 840 841 843 845 847 849 851 853 855 857 859 861 862 864 865 866 867 868 869 870 871 872 873 874 875 876 877 878
825 824 822 824 828 833 840 844 844 846 851 854 854 854 857 859 860 858 856 851 847 850 851 848 846 834 821 819 815 812 818 818 817 818 818 819 818 817 819 819 819 819 817 817 817 818 820 821 822 823 824 825 827 828 829 830 832 833 835 837 840 842 844 846 848 851 853 855 857 859 860 862 863 864 865 865 866 867 868 870 871 872 873 874 875 876
824 823 821 825 830 833 839 843 844 845 851 856 855 852 853 855 857 859 856 855 856 854 850 850 850 833 816 816 813 808 814 815 814 816 814 813 816 819 819 815 814 815 814 814 813 814 816 816 818 819 820 822 823 824 825 826 827 829 832 834 836 838 840 843 845 848 850 852 854 856 857 859 860 861 861 862 864 865 866 868 869 870 871 872 873 873
823 823 821 824 829 833 837 841 841 841 850 856 849 848 852 852 856 857 855 861 864 857 849 851 853 841 822 811 807 809 811 810 812 814 812 811 813 815 813 810 810 810 810 811 810 811 812 813 814 815 815 817 817 818 820 822 824 826 828 830 832 834 836 839 841 844 846 848 850 852 853 855 856 857 858 860 862 863 865 866 867 868 869 870 871 871
820 824 825 825 829 834 836 838 838 836 846 850 842 844 847 848 852 853 855 863 863 856 851 848 852 852 836 814 808 813 811 807 809 810 808 808 809 809 808 805 804 804 804 806 806 807 808 808 809 809 809 811 812 814 817 818 820 822 824 826 828 830 832 834 837 840 842 844 846 848 850 851 853 854 855 857 859 861 863 864 865 866 866 868 869 869
818 822 824 824 828 833 830 829 832 834 841 843 841 844 843 844 848 848 854 860 860 861 856 848 851 854 837 816 815 819 811 804 803 801 800 800 801 802 802 801 799 799 800 802 802 801 802 803 803 804 805 806 807 810 812 814 816 818 820 823 825 826 828 830 833 835 838 840 842 844 846 848 849 851 852 854 856 858 859 861 862 863 864 865 867 868
818 816 817 820 825 828 826 827 830 832 837 840 842 844 845 848 850 850 854 855 860 865 855 846 849 849 832 811 813 818 812 806 801 796 794 792 794 797 796 796 795 796 797 798 799 797 797 798 799 800 802 803 804 806 808 810 813 815 817 820 821 823 825 827 829 831 834 836 838 840 842 844 846 848 850 852 853 855 857 858 859 860 862 863 865 866
817 816 817 819 822 823 826 831 833 833 836 839 841 843 847 851 850 853 854 854 863 862 849 845 845 847 839 814 804 808 803 797 795 794 792 789 790 791 791 791 790 791 794 795 796 795 795 796 797 799 799 800 801 803 805 807 809 811 814 816 818 819 822 823 825 827 830 832 834 836 838 840 842 844 846 848 850 852 853 855 856 858 860 861 862 864
820 821 821 820 821 821 825 833 837 836 835 836 838 841 849 853 853 856 857 860 865 856 850 855 851 850 845 816 798 797 794 792 791 789 787 784 783 783 785 788 788 790 792 793 794 793 793 795 795 796 795 796 799 800 801 803 805 807 810 812 814 816 818 820 822 824 826 828 830 832 834 836 838 840 842 844 846 848 850 852 853 855 857 859 860 861
823 824 823 822 822 819 823 835 841 840 836 837 839 843 853 864 867 866 865 866 864 853 852 857 854 844 828 806 797 794 791 790 789 786 783 780 778 778 781 785 787 789 790 790 791 791 791 792 791 791 791 793 795 795 797 799 801 803 805 808 810 812 814 816 818 820 822 824 826 828 830 832 834 836 838 840 842 844 846 848 850 852 853 855 857 859
825 827 824 823 825 818 817 829 839 841 839 838 839 842 851 866 874 871 869 868 860 850 849 852 851 836 812 797 792 787 782 782 783 784 782 781 779 777 780 785 787 788 788 789 789 788 789 788 788 789 789 790 790 791 793 794 796 799 801 803 806 808 810 813 814 816 818 820 822 825 827 829 831 833 835 837 839 841 843 844 847 848 850 852 854 856
817 822 819 819 821 817 814 819 823 829 834 835 832 833 839 846 853 856 857 854 847 844 849 853 844 822 802 793 788 784 783 781 782 785 785 785 784 782 785 787 786 784 783 786 787 786 785 785 786 787 787 788 788 788 789 791 792 795 797 799 802 804 807 809 811 813 815 817 819 821 824 826 828 830 832 834 836 838 840 841 843 845 847 850 852 854
804 808 810 812 813 812 814 816 816 822 835 838 833 834 836 832 833 843 848 845 843 844 847 846 830 809 797 789 784 787 787 782 780 782 784 784 782 784 785 781 779 778 779 782 783 782 783 783 783 784 785 786 786 787 787 788 790 791 794 796 798 801 803 805 808 810 812 814 816 818 820 823 825 827 829 831 833 835 837 839 841 843 845 847 850 852
798 807 814 814 815 813 812 815 814 817 829 838 837 835 832 827 827 838 847 851 851 845 838 832 819 805 800 789 778 779 780 776 776 776 777 777 777 782 781 775 775 775 777 780 780 780 780 781 781 781 783 784 785 786 786 787 789 790 792 794 796 799 801 803 805 807 810 811 813 816 817 820 822 824 826 828 831 833 835 837 839 841 843 845 847 849
792 811 820 815 816 818 813 814 815 813 818 830 834 827 826 830 829 831 839 847 851 844 833 828 819 808 806 795 779 777 777 772 770 769 769 770 773 776 773 770 773 774 777 779 778 779 779 778 780 780 781 783 783 785 786 787 788 790 792 793 795 797 799 801 803 805 807 809 810 813 814 817 819 821 823 826 828 831 833 835 837 838 841 843 845 847
781 803 821 817 816 820 816 816 821 819 816 819 820 816 820 831 832 831 836 838 842 840 829 825 824 814 806 794 780 777 777 769 765 766 766 765 766 767 766 767 770 772 773 774 775 777 777 777 778 779 780 782 783 784 786 787 788 789 791 793 794 796 798 800 802 803 805 807 808 810 812 814 816 818 821 823 826 828 830 832 834 836 838 841 843 845
774 792 818 820 815 820 819 817 820 820 819 819 818 817 818 822 823 826 831 830 831 833 825 822 821 807 795 789 778 772 772 768 765 764 762 761 762 764 764 764 766 769 770 771 774 776 776 777 777 778 780 781 782 784 785 786 787 788 790 791 793 795 796 798 800 801 803 804 806 808 810 812 814 816 819 821 823 825 828 830 832 834 836 838 841 843
775 786 809 821 821 821 819 814 811 811 816 819 819 821 820 819 821 822 823 823 824 827 827 825 816 795 783 783 775 766 764 762 762 761 758 761 765 766 765 764 766 769 770 771 774 774 775 776 776 777 778 779 781 783 784 785 786 787 788 790 791 792 794 795 797 799 800 802 804 806 808 810 812 814 816 818 820 822 825 827 829 832 834 836 839 841
776 785 804 822 825 819 811 807 806 806 808 809 811 814 813 814 820 823 823 820 820 823 825 826 816 790 774 775 772 766 761 760 766 768 763 764 768 765 765 768 769 769 770 772 773 773 774 774 774 775 776 778 779 781 782 783 784 786 786 788 789 790 791 793 794 796 798 800 803 804 806 808 810 812 814 816 818 820 822 825 827 829 832 834 836 839
774 788 807 820 819 813 811 813 814 810 804 805 808 807 807 811 812 815 819 818 820 823 823 828 821 788 765 769 772 769 769 770 776 777 769 765 768 767 765 768 771 770 770 772 772 772 773 772 773 774 775 776 778 779 781 782 783 784 785 786 787 788 789 791 792 794 796 798 801 802 804 806 808 810 811 813 815 817 819 822 824 827 829 832 834 836
772 787 804 813 811 809 809 812 814 811 807 806 805 803 806 807 803 806 812 814 817 818 815 825 821 787 763 768 770 771 776 776 774 777 773 766 766 768 767 767 769 769 770 771 772 772 773 773 773 774 774 775 776 778 779 780 781 782 783 785 786 787 788 789 791 792 794 796 798 800 802 804 805 807 809 811 812 814 816 819 821 824 827 830 832 834
768 781 795 809 816 814 812 812 810 808 807 803 801 804 805 801 804 810 812 814 816 810 807 818 812 783 766 768 766 766 772 769 765 771 774 769 764 765 765 766 768 769 769 770 771 772 772 773 773 773 774 774 775 776 777 778 780 781 782 783 784 786 787 788 789 791 792 794 796 798 800 801 803 805 806 808 811 812 815 818 820 822 825 828 830 832
762 774 782 794 808 808 804 802 794 794 802 802 800 802 800 799 804 806 809 817 813 802 802 806 793 774 765 764 760 760 763 763 762 765 768 768 766 765 765 766 767 767 767 767 769 771 771 772 773 773 773 773 774 774 775 777 778 779 781 782 784 785 786 787 789 790 791 793 794 796 797 799 801 802 804 806 809 811 814 817 819 821 823 825 828 830
760 770 769 770 776 776 775 777 774 778 792 795 793 795 797 799 801 801 808 809 798 796 799 789 777 775 769 763 760 758 757 759 760 763 765 765 767 768 768 769 768 767 767 767 768 769 770 771 772 772 772 772 773 773 774 775 776 778 780 781 783 784 785 787 788 789 790 791 793 794 795 797 799 801 803 805 808 810 812 815 817 819 821 824 826 829
756 766 763 760 762 761 763 769 770 773 779 782 787 793 795 797 799 801 800 789 783 796 796 777 774 779 772 765 762 756 757 761 760 760 763 764 766 768 769 769 767 765 766 767 768 768 768 768 769 770 770 770 771 772 773 774 776 777 779 780 782 784 785 786 787 788 789 790 792 793 794 797 799 801 803 805 807 809 811 813 815 817 820 823 825 828
747 755 754 758 764 764 764 768 768 770 774 777 783 789 791 794 796 795 788 778 781 789 780 769 774 774 766 765 760 752 756 762 761 761 765 766 765 764 764 763 760 760 762 763 765 766 767 766 766 767 767 768 769 770 771 773 774 776 778 779 781 782 783 785 786 787 788 790 791 792 794 796 799 800 803 804 806 808 810 812 814 817 819 822 824 827
742 749 753 758 765 768 773 774 770 771 776 779 783 786 789 789 787 783 777 773 780 782 772 771 776 771 766 763 755 751 757 760 762 765 765 763 761 760 760 758 755 755 758 759 760 763 764 764 764 765 765 766 767 768 769 770 771 773 775 776 778 780 782 783 785 786 787 789 791 792 794 796 798 800 802 803 805 807 809 811 814 816 818 821 824 826
743 753 759 760 766 775 780 778 775 775 775 778 783 786 786 786 784 780 774 775 783 779 770 776 782 772 763 759 756 757 760 761 763 763 761 759 760 761 759 756 753 753 753 755 757 759 761 762 762 763 763 763 764 765 766 767 768 770 771 773 775 777 780 782 784 785 787 788 790 792 794 795 797 799 801 803 805 807 809 811 812 815 817 820 823 825
747 758 761 761 770 779 780 779 779 777 777 781 783 780 779 780 780 777 772 771 774 768 768 782 780 759 749 755 759 758 756 758 759 757 757 758 759 760 758 754 753 752 750 750 752 755 758 758 758 758 758 759 761 762 762 763 765 766 767 770 772 774 777 779 781 783 785 787 789 791 792 794 796 798 800 802 804 806 808 809 811 814 816 818 821 824
749 756 761 764 770 780 785 780 773 775 783 782 768 761 767 772 771 771 767 763 761 760 766 771 756 739 742 753 756 755 755 754 752 751 751 751 751 755 754 751 751 751 750 749 749 751 753 753 753 753 754 755 756 756 757 759 760 762 763 766 769 772 775 777 779 781 783 785 788 789 791 793 795 797 799 801 803 805 807 808 810 812 814 817 820 823
746 750 758 760 764 781 790 777 769 780 784 764 739 738 755 762 761 761 758 754 755 756 754 748 739 738 746 748 745 749 750 746 745 745 745 745 746 748 748 747 747 747 748 749 748 749 749 749 750 750 751 752 752 753 755 757 758 759 761 764 766 769 771 774 776 779 781 783 785 787 790 792 793 795 797 799 802 803 805 807 809 811 814 816 819 821
742 747 753 753 762 783 787 775 779 784 765 738 728 734 741 743 745 750 750 749 753 754 750 745 741 740 742 741 740 743 742 740 742 742 741 743 744 744 744 743 742 743 745 746 746 746 746 747 747 747 748 748 749 752 753 754 756 758 760 762 764 766 769 771 773 776 778 780 783 785 787 789 791 793 795 798 800 802 804 806 808 810 813 815 817 820
736 741 747 753 767 782 781 772 771 762 740 729 734 737 735 736 743 751 755 751 748 748 745 740 737 736 738 740 740 740 741 742 744 742 739 741 742 742 741 738 737 739 740 740 742 743 744 744 744 744 745 745 747 749 750 752 754 756 758 760 762 764 766 769 771 773 775 777 779 782 784 786 789 791 793 796 798 800 802 804 806 809 811 814 816 819
731 735 741 753 767 770 769 766 757 748 739 729 726 730 733 735 738 746 751 741 732 735 738 734 735 736 736 737 738 741 745 746 743 738 735 738 740 738 736 733 733 736 737 739 741 741 741 742 742 742 743 744 745 746 747 750 752 754 757 758 760 762 764 766 768 770 772 774 776 779 781 784 786 789 791 793 795 797 800 802 804 807 809 812 814 817
731 733 732 746 763 765 764 766 762 757 745 724 717 725 728 727 729 737 743 732 720 725 733 732 732 733 733 735 738 742 747 748 742 734 730 732 733 730 730 732 733 735 737 739 740 740 740 740 741 741 742 742 743 744 746 748 750 753 755 756 758 761 762 763 765 767 769 772 774 777 780 782 784 787 789 791 792 795 797 800 802 805 807 810 812 815
733 735 730 739 757 759 754 756 759 751 733 716 715 722 725 725 726 736 748 737 716 714 720 721 724 727 728 731 734 740 747 746 739 729 723 724 726 727 729 731 732 735 737 736 737 738 738 739 739 740 741 741 742 743 745 747 749 751 753 755 757 759 760 760 762 764 767 770 772 776 778 780 783 785 787 789 791 793 796 798 801 804 807 809 811 814
735 737 736 740 748 749 746 749 748 736 723 716 716 720 725 725 724 740 754 737 709 706 711 711 716 721 720 722 730 737 740 735 728 723 720 722 725 728 730 731 732 734 734 734 735 735 735 737 737 738 739 739 740 742 744 746 748 750 752 754 756 757 757 759 761 764 767 770 772 775 777 779 782 784 785 788 790 793 795 798 800 803 806 808 811 813
739 738 738 736 740 745 746 744 739 727 716 715 718 722 724 724 727 738 737 716 700 704 710 710 713 715 714 720 727 730 726 721 720 721 722 724 725 727 731 732 732 733 733 733 733 733 734 736 736 737 738 738 739 742 743 745 747 749 751 753 754 755 757 759 762 765 767 769 772 774 776 779 781 783 786 788 790 793 795 798 800 802 804 807 810 812
731 733 735 733 736 743 742 742 742 728 708 706 720 728 724 720 722 719 708 702 702 703 706 710 711 710 714 720 722 721 718 718 721 723 724 725 725 727 732 733 732 733 733 732 732 732 733 734 735 737 737 738 739 741 742 744 746 748 750 752 752 754 757 759 761 764 766 768 771 773 775 778 780 782 785 788 790 793 795 798 800 802 803 806 808 811
716 723 729 727 728 735 740 744 742 721 698 700 718 728 722 713 707 701 697 704 709 705 705 710 710 711 715 717 718 719 719 720 722 723 724 726 727 729 732 733 733 734 733 733 733 733 733 734 735 736 737 738 739 741 742 744 746 747 749 750 751 754 756 758 760 763 765 767 769 771 773 775 778 780 783 785 788 791 793 796 798 800 802 804 806 808
706 708 712 714 714 721 727 727 717 703 697 699 702 705 708 706 704 701 698 700 706 709 711 709 709 714 715 712 714 719 721 722 723 723 725 727 728 730 732 733 734 734 733 734 733 733 734 735 736 737 738 739 740 741 743 744 745 747 748 749 752 754 756 758 760 761 764 765 767 770 772 774 776 778 781 783 786 789 791 793 796 798 800 802 804 806
694 691 695 701 704 706 705 703 700 699 704 704 697 694 698 701 707 710 704 699 701 709 713 710 708 713 716 715 715 718 720 722 724 724 726 727 729 732 733 734 734 734 734 735 734 734 735 735 736 738 739 740 742 742 744 745 746 748 749 750 753 754 755 758 760 761 763 765 767 769 771 773 775 777 779 782 783 786 788 790 792 795 797 799 801 802
693 692 691 694 700 702 699 699 703 703 703 704 704 704 703 702 708 712 707 703 703 707 712 712 708 710 716 717 715 715 719 722 724 726 728 729 731 734 734 734 736 735 735 735 735 736 736 736 738 739 739 741 743 744 745 747 748 749 750 751 753 755 756 758 760 761 764 765 767 769 770 772 775 777 779 781 783 784 786 788 789 792 794 796 799 800
695 694 691 690 697 699 693 692 697 698 699 701 703 706 706 706 710 712 708 706 708 711 714 715 713 714 717 716 713 714 718 723 725 727 730 730 731 734 734 735 736 736 736 737 736 737 738 738 739 740 741 742 744 744 746 748 748 750 752 752 754 756 757 759 760 762 763 765 766 769 770 772 774 776 778 780 782 784 786 788 789 791 792 794 796 798
688 690 689 689 693 692 687 690 697 699 701 704 704 704 705 703 706 711 712 712 714 716 716 718 718 717 716 716 716 716 719 724 726 726 729 732 732 734 735 735 736 737 737 738 738 738 739 739 740 741 743 744 745 746 747 748 749 750 752 753 755 756 757 759 760 761 763 765 766 768 770 772 774 775 777 779 781 783 785 786 788 789 790 791 792 794
684 685 685 686 689 690 691 698 703 699 699 704 704 703 703 702 703 709 714 716 716 716 716 719 721 720 718 719 720 718 719 725 727 726 729 732 733 734 736 735 736 737 737 738 739 739 740 741 742 743 744 745 746 747 748 748 750 751 752 753 754 756 757 758 759 761 762 764 766 768 769 771 773 775 776 778 780 782 783 784 786 787 788 790 791 791
681 680 684 687 686 683 683 690 693 688 688 694 695 694 697 702 705 708 711 714 715 715 716 717 720 723 723 722 722 720 720 724 729 729 730 732 734 735 736 736 737 738 738 739 740 740 741 742 743 744 745 746 747 748 749 750 750 751 752 753 754 755 756 757 758 760 761 763 764 766 768 770 772 773 775 777 778 780 782 783 785 786 787 789 790 791
670 670 675 676 674 672 672 679 683 678 676 682 684 686 695 703 705 706 708 711 713 716 717 716 717 720 724 724 724 722 721 725 729 730 731 734 736 736 737 738 738 738 739 740 740 741 742 743 743 745 746 746 748 749 749 750 751 751 752 753 753 755 756 756 758 759 760 761 763 765 767 769 770 772 774 776 777 778 780 782 783 784 786 787 788 789